User: anonymous   Login
Location: Karaa?a�
(36.7158°N, 30.4165°E)
Time: 17:49:24
(UTC+00:00)
Language:

ATLAS 5 CENTAUR R/B - Orbit

View from above orbital plane
View from above orbital plane
View from above satellite
View from above satellite

Ground track
Ground track

The orbit data is extracted from the following two-line orbital elements,

1 31702U 07027B   20178.00455768 0.00000000  00000-0  00000-0 0    05
2 31702  63.3557 239.7033 0399136  15.5559 344.4441 14.18781587    06
Epoch (UTC): 26 June 2020 00:06:33
Eccentricity: 0.0399136
inclination: 63.3557°
perigee height: 542 km
apogee height: 1117 km
right ascension of ascending node: 239.7033°
argument of perigee: 15.5559°
revolutions per day: 14.18781587
mean anomaly at epoch: 344.4441°
orbit number at epoch: 0

The dashed part of the orbit path shows where the satellite is in the earth's shadow,  

DLR